User: anonymous   Login
Location: Mentone
(34.5413°N, 85.5351°W)
Time: 08:04:25
(UTC-05:00)
Language:

Transit 2A Rocket - Orbit

View from above orbital plane
View from above orbital plane
View from above satellite
View from above satellite

Ground track
Ground track

The orbit data is extracted from the following two-line orbital elements,

1 00047U 60007C   15115.16735335  .00000611  00000-0  15932-3 0  9991
2 00047 066.6643 141.2965 0235606 239.5598 118.2042 14.41600377864048
Epoch (UTC): 25 April 2015 04:00:59
Eccentricity: 0.0235606
inclination: 66.6643°
perigee height: 585 km
apogee height: 921 km
right ascension of ascending node: 141.2965°
argument of perigee: 239.5598°
revolutions per day: 14.41600377
mean anomaly at epoch: 118.2042°
orbit number at epoch: 86404

The dashed part of the orbit path shows where the satellite is in the earth's shadow,  

DLR